Back to catalog

STARLINK-36367

AliveCommunicationsVLEO
NORAD 67629·PAYLOAD·🇺🇸 United States

Launched Jan 30, 2026 from Cape Canaveral Space Force Station

Loading…

Next Passes (next 24 hours)

TLE

FreshSource: CelesTrak SupGP

Epoch: Sep 14, 2026, 14:30 UTC

1 67629C 26020N   26257.60465278  .00036471  00000+0  13209-2 0  2574
2 67629  43.0025 152.6292 0001455 263.5650 277.6395 15.27561513    11

Track STARLINK-36367 in real time with AllMySat

Download on the App Store